Date String (YYYY-MM-DD hh:mm:ss) UTC,Instrument flags,Ambient pressure (hPa),Sample flow (lpm),Bypass flow (lpm),Sample temperature (°C),Ambient temperature (°C),ASC tube jacket temperature (°C),LED temperature (°C),Box temperature (°C),Sample RH (%),Span deviation,Mass concentration (μg/m³),Mass concentration (μg/m³),Mass concentration (μg/m³)
DateTimeUTC,F1_M11,P_M11,Q1_M11,Q2_M11,T1_M11,T2_M11,T3_M11,T4_M11,T5_M11,U1_M11,ZSPAN_M11,X2_M11,X0_M11,X1_M11
2022-07-10 06:00:00,,0830.4,5.00,0.00,29.4,28.3,00.0,38.1,31.4,17.2,0000.0,0003.67,0007.09,0003.23
2022-07-10 06:01:00,,0830.4,5.00,0.00,29.5,28.4,00.0,38.1,31.4,17.1,0000.0,0003.68,0007.34,0003.24
2022-07-10 06:02:00,,0830.3,4.99,0.00,29.5,28.5,00.0,38.2,31.5,17.1,0000.0,0003.73,0007.61,0003.25
2022-07-10 06:03:00,,0830.4,5.00,0.00,29.5,28.5,00.0,38.2,31.5,16.9,0000.0,0003.75,0007.67,0003.26
2022-07-10 06:04:00,,0830.4,5.00,0.00,29.5,28.0,00.0,38.2,31.4,16.9,0000.0,0003.72,0007.67,0003.27
2022-07-10 06:05:00,,0830.4,5.00,0.00,29.5,27.5,00.0,38.1,31.4,17.0,0000.0,0003.69,0007.66,0003.27
2022-07-10 06:06:00,,0830.4,5.00,0.00,29.5,27.4,00.0,38.1,31.3,17.0,0000.0,0003.70,0007.83,0003.27
2022-07-10 06:07:00,,0830.4,5.00,0.00,29.4,27.5,00.0,38.1,31.2,16.9,0000.0,0003.71,0007.95,0003.26
2022-07-10 06:08:00,,0830.4,5.00,0.00,29.4,27.6,00.0,38.1,31.2,16.9,0000.0,0003.69,0007.24,0003.26
2022-07-10 06:09:00,,0830.4,5.00,0.00,29.4,27.7,00.0,38.1,31.3,17.0,0000.0,0003.72,0007.32,0003.27
2022-07-10 06:10:00,,0830.4,5.00,0.00,29.4,27.9,00.0,38.2,31.3,16.8,0000.0,0003.74,0007.43,0003.27
2022-07-10 06:11:00,,0830.5,4.99,0.00,29.4,28.0,00.0,38.2,31.3,17.0,0000.0,0003.75,0007.42,0003.27
2022-07-10 06:12:00,,0830.4,5.01,0.00,29.5,28.2,00.0,38.2,31.4,16.9,0000.0,0003.77,0007.44,0003.27
2022-07-10 06:13:00,,0830.4,5.00,0.00,29.5,28.3,00.0,38.2,31.4,16.8,0000.0,0003.72,0007.12,0003.25
2022-07-10 06:14:00,,0830.4,5.00,0.00,29.5,28.4,00.0,38.2,31.5,16.7,0000.0,0003.74,0007.74,0003.24
2022-07-10 06:15:00,,0830.4,5.00,0.00,29.6,28.5,00.0,38.2,31.5,16.4,0000.0,0003.75,0007.79,0003.23
2022-07-10 06:16:00,,0830.4,4.99,0.00,29.6,28.5,00.0,38.3,31.5,16.1,0000.0,0003.76,0007.78,0003.22
2022-07-10 06:17:00,,0830.4,5.01,0.00,29.6,27.9,00.0,38.2,31.4,16.1,0000.0,0003.74,0007.63,0003.21
2022-07-10 06:18:00,,0830.4,5.01,0.00,29.5,27.5,00.0,38.2,31.4,16.1,0000.0,0003.70,0007.41,0003.21
2022-07-10 06:19:00,,0830.4,5.00,0.00,29.5,27.4,00.0,38.2,31.3,16.2,0000.0,0003.71,0007.46,0003.20
2022-07-10 06:20:00,,0830.4,5.00,0.00,29.5,27.5,00.0,38.2,31.3,16.0,0000.0,0003.68,0007.42,0003.19
2022-07-10 06:21:00,,0830.4,5.00,0.00,29.4,27.6,00.0,38.2,31.3,15.9,0000.0,0003.66,0007.35,0003.17
2022-07-10 06:22:00,,0830.4,5.00,0.00,29.5,27.8,00.0,38.2,31.3,15.9,0000.0,0003.61,0007.22,0003.16
2022-07-10 06:23:00,,0830.4,5.00,0.00,29.5,27.9,00.0,38.2,31.3,15.8,0000.0,0003.58,0007.15,0003.14
2022-07-10 06:24:00,,0830.4,5.00,0.00,29.5,28.1,00.0,38.2,31.3,15.8,0000.0,0003.58,0007.29,0003.12
2022-07-10 06:25:00,,0830.4,5.02,0.00,29.5,28.2,00.0,38.2,31.4,15.6,0000.0,0003.55,0006.69,0003.10
2022-07-10 06:26:00,,0830.4,5.00,0.00,29.5,28.3,00.0,38.3,31.5,15.3,0000.0,0003.55,0006.69,0003.07
2022-07-10 06:27:00,,0830.4,4.99,0.00,29.6,28.4,00.0,38.3,31.5,15.3,0000.0,0003.55,0006.68,0003.04
2022-07-10 06:28:00,,0830.4,5.00,0.00,29.6,28.5,00.0,38.3,31.6,15.2,0000.0,0003.56,0006.83,0003.01
2022-07-10 06:29:00,,0830.4,5.00,0.00,29.6,28.5,00.0,38.3,31.6,15.2,0000.0,0003.59,0007.07,0002.99
2022-07-10 06:30:00,,0830.4,5.00,0.00,29.6,27.7,00.0,38.2,31.4,15.1,0000.0,0003.57,0007.06,0002.98
2022-07-10 06:31:00,,0830.4,5.00,0.00,29.5,27.0,00.0,38.2,31.3,15.1,0000.0,0003.55,0006.91,0002.99
2022-07-10 06:32:00,,0830.4,5.00,0.00,29.5,26.9,00.0,38.2,31.2,15.0,0000.0,0003.54,0007.17,0003.00
2022-07-10 06:33:00,,0830.4,4.97,0.00,29.4,27.0,00.0,38.2,31.1,15.1,0000.0,0003.56,0007.39,0003.01
2022-07-10 06:34:00,,0830.4,5.00,0.00,29.4,27.2,00.0,38.2,31.1,15.2,0000.0,0003.55,0007.34,0003.01
2022-07-10 06:35:00,,0830.3,5.00,0.00,29.4,27.3,00.0,38.2,31.1,15.1,0000.0,0003.57,0007.28,0003.02
2022-07-10 06:36:00,,0830.3,5.01,0.00,29.4,27.5,00.0,38.2,31.1,15.3,0000.0,0003.55,0006.85,0003.03
2022-07-10 06:37:00,,0830.3,5.01,0.00,29.4,27.7,00.0,38.2,31.2,15.2,0000.0,0003.52,0007.34,0003.03
2022-07-10 06:38:00,,0830.3,4.99,0.00,29.4,27.9,00.0,38.2,31.3,15.3,0000.0,0003.50,0007.34,0003.04
2022-07-10 06:39:00,,0830.2,5.00,0.00,29.4,28.0,00.0,38.2,31.3,15.3,0000.0,0003.48,0007.18,0003.06
2022-07-10 06:40:00,,0830.3,5.01,0.00,29.4,28.2,00.0,38.2,31.4,15.3,0000.0,0003.46,0007.49,0003.06
2022-07-10 06:41:00,,0830.2,5.01,0.00,29.5,28.3,00.0,38.2,31.4,15.3,0000.0,0003.45,0007.58,0003.07
2022-07-10 06:42:00,,0830.2,5.00,0.00,29.5,28.4,00.0,38.2,31.4,15.4,0000.0,0003.48,0007.72,0003.08
2022-07-10 06:43:00,,0830.2,5.00,0.00,29.5,28.5,00.0,38.2,31.5,15.5,0000.0,0003.48,0007.57,0003.10
2022-07-10 06:44:00,,0830.2,5.00,0.00,29.6,28.6,00.0,38.3,31.5,15.6,0000.0,0003.46,0007.35,0003.11
2022-07-10 06:45:00,,0830.3,5.00,0.00,29.6,28.7,00.0,38.3,31.6,15.6,0000.0,0003.49,0007.35,0003.12
2022-07-10 06:46:00,,0830.3,5.01,0.00,29.6,28.3,00.0,38.3,31.5,15.6,0000.0,0003.50,0007.62,0003.13
2022-07-10 06:47:00,,0830.2,4.99,0.00,29.6,27.4,00.0,38.2,31.4,15.7,0000.0,0003.53,0007.98,0003.15
2022-07-10 06:48:00,,0830.2,4.99,0.00,29.5,27.0,00.0,38.2,31.3,15.8,0000.0,0003.58,0008.50,0003.16
2022-07-10 06:49:00,,0830.2,4.99,0.00,29.5,27.0,00.0,38.2,31.2,15.9,0000.0,0003.61,0008.55,0003.18
2022-07-10 06:50:00,,0830.2,5.00,0.00,29.4,27.1,00.0,38.2,31.1,16.0,0000.0,0003.62,0008.81,0003.19
2022-07-10 06:51:00,,0830.3,5.01,0.00,29.4,27.3,00.0,38.2,31.2,16.1,0000.0,0003.66,0008.54,0003.21
2022-07-10 06:52:00,,0830.2,5.00,0.00,29.4,27.5,00.0,38.2,31.2,16.1,0000.0,0003.68,0008.42,0003.22
2022-07-10 06:53:00,,0830.3,5.00,0.00,29.4,27.6,00.0,38.2,31.2,16.2,0000.0,0003.65,0008.28,0003.22
2022-07-10 06:54:00,,0830.2,5.00,0.00,29.4,27.8,00.0,38.2,31.3,16.1,0000.0,0003.65,0008.30,0003.21
2022-07-10 06:55:00,,0830.3,5.00,0.00,29.4,28.0,00.0,38.2,31.3,16.1,0000.0,0003.66,0008.70,0003.21
2022-07-10 06:56:00,,0830.2,4.99,0.00,29.4,28.1,00.0,38.2,31.3,16.2,0000.0,0003.61,0009.13,0003.20
2022-07-10 06:57:00,,0830.2,4.99,0.00,29.5,28.2,00.0,38.2,31.4,16.0,0000.0,0003.59,0008.82,0003.20
2022-07-10 06:58:00,,0830.2,5.00,0.00,29.5,28.4,00.0,38.2,31.4,16.1,0000.0,0003.57,0008.45,0003.19
2022-07-10 06:59:00,,0830.2,4.99,0.00,29.5,28.5,00.0,38.3,31.5,15.8,0000.0,0003.54,0007.70,0003.18
